User: anonymous   Login
Location: *
(46.4833°N, 7.6667°E)
Time: 18:08:22
(UTC+00:00)
Language:

CZ-2C R/B - Orbit

View from above orbital plane
View from above orbital plane
View from above satellite
View from above satellite

Ground track
Ground track

The orbit data is extracted from the following two-line orbital elements,

1 37766U 11039B   20151.66396289 +.00000042 +00000-0 +16876-4 0  9999
2 37766 098.3825 004.4743 0046893 078.2471 282.3988 14.66464666472818
Epoch (UTC): 30 May 2020 15:56:06
Eccentricity: 0.0046893
inclination: 98.3825°
perigee height: 639 km
apogee height: 705 km
right ascension of ascending node: 4.4743°
argument of perigee: 78.2471°
revolutions per day: 14.66464666
mean anomaly at epoch: 282.3988°
orbit number at epoch: 47281

The dashed part of the orbit path shows where the satellite is in the earth's shadow,  

DLR